Theta_e
363 363 360 359 360 358 358 357 355 354 356 353 352 354 352 354 353 351 351 353 354 357 360 365 366 366 361 366 368 366 365 365 364 362 365 363 360 358 354 355 356 353
364 363 363 362 362 362 360 358 357 355 356 357 355 354 356 354 350 351 351 352 354 355 358 359 362 365 364 363 368 364 363 364 363 360 363 364 361 358 356 356 355 356
363 362 360 359 357 360 358 359 359 356 354 354 356 357 353 355 351 352 352 353 354 353 354 356 359 359 358 361 367 366 362 364 363 361 360 362 361 359 359 355 352 354
363 361 358 358 358 357 358 359 359 358 357 354 354 355 354 352 352 350 351 353 353 354 355 355 356 355 356 357 364 363 361 362 361 360 359 362 362 357 356 356 354 351
359 360 358 359 359 360 359 357 356 356 356 355 354 356 356 358 356 351 351 351 355 354 355 356 358 356 357 357 359 360 358 354 359 360 358 359 362 359 355 353 354 351
358 360 363 359 360 361 357 356 357 356 355 353 354 355 356 355 356 354 352 351 351 351 351 354 355 355 356 357 357 358 356 352 354 357 359 359 356 354 356 357 355 352
354 356 358 360 358 359 358 355 355 356 354 357 361 358 360 356 354 357 356 352 352 354 352 354 356 357 357 358 358 358 356 357 357 357 358 360 360 357 357 356 357 355
355 354 358 358 357 357 358 357 356 358 359 363 361 361 358 356 356 356 356 356 354 353 354 354 355 359 358 356 355 356 357 353 353 357 359 361 361 360 361 359 356 357
355 355 357 356 356 356 354 358 352 358 364 359 361 362 359 357 356 356 358 356 356 354 354 354 356 357 358 357 355 356 356 355 355 354 356 356 357 359 359 361 360 359
355 355 355 357 356 356 356 360 357 357 360 360 359 360 356 357 356 355 355 357 358 356 355 356 355 355 356 357 356 356 355 357 357 356 356 358 358 358 359 360 362 360
354 356 356 357 357 356 356 356 355 357 359 359 359 358 358 356 355 356 356 357 354 355 356 356 355 355 356 355 355 356 357 355 356 357 357 357 357 359 359 360 359 359
355 356 355 355 358 363 358 355 355 356 355 357 360 360 359 357 355 355 354 355 355 355 356 356 357 356 356 357 356 356 356 356 356 356 355 356 356 355 356 358 357 358
356 356 356 358 360 361 360 358 357 357 356 356 358 359 358 357 356 356 356 354 354 353 355 356 356 356 357 358 357 356 356 356 355 354 355 354 355 354 355 357 359 357
356 357 359 359 358 358 359 358 358 356 356 359 359 358 356 356 355 356 356 358 355 354 356 357 357 357 359 358 357 356 354 354 355 355 354 354 356 355 355 357 358 359
359 358 360 361 361 360 358 357 355 355 356 357 358 358 357 357 356 355 355 354 355 355 355 354 355 355 357 357 357 356 356 354 354 354 353 354 355 356 357 357 358 358
358 357 359 360 358 356 357 358 357 356 356 357 358 359 358 358 358 357 356 354 354 355 355 354 356 356 358 358 357 356 356 353 353 354 356 356 355 355 355 357 358 359
357 357 358 356 356 356 358 357 356 356 357 357 358 358 357 358 357 356 355 356 355 353 353 352 350 351 354 346 347 353 357 355 354 354 356 355 356 353 356 357 356 355
357 357 361 361 361 359 358 358 357 357 357 357 357 356 356 357 356 356 355 355 355 354 354 352 353 358 339 342 344 344 350 354 352 352 353 355 357 357 355 355 356 354
361 360 359 357 355 352 353 358 355 355 356 356 355 354 355 355 356 356 354 353 353 353 352 353 354 353 344 341 341 340 341 350 352 354 355 355 356 359 361 360 357 356
352 348 349 347 349 351 354 355 354 356 357 357 356 356 354 354 354 355 354 354 354 354 354 354 355 355 341 339 337 337 337 345 354 356 356 357 359 359 358 358 358 355
351 347 347 346 346 348 351 354 355 355 356 357 357 356 355 355 355 354 354 355 354 354 354 353 353 345 337 335 333 332 333 342 354 354 355 357 358 358 357 356 358 357
351 350 349 350 349 350 352 353 353 354 355 356 355 356 356 356 356 355 355 355 355 356 356 356 357 339 334 334 331 330 334 349 353 353 353 355 356 357 357 359 359 357
354 352 352 353 353 353 353 353 353 355 356 356 354 355 355 355 356 355 356 356 356 356 356 355 356 341 330 331 329 329 337 351 354 354 354 355 356 358 358 358 359 359
356 356 355 354 354 353 353 354 356 356 356 356 354 354 354 354 354 354 356 356 355 355 355 355 355 345 326 326 326 327 340 352 354 353 354 356 357 356 356 357 359 354
356 356 356 355 354 353 354 354 354 354 355 356 355 355 354 355 353 353 353 354 354 355 351 352 353 348 324 325 322 322 336 350 350 351 351 352 353 353 355 355 355 354
355 355 355 354 354 353 354 354 354 354 353 353 353 352 352 352 352 354 354 353 354 353 353 354 354 356 348 320 322 321 324 345 350 350 349 350 351 350 350 352 352 353
Wind_Speed
8 7 7 7 8 7 7 7 7 8 8 7 8 8 9 8 8 8 8 8 9 10 9 9 8 8 8 7 6 6 6 6 7 5 5 6 7 8 7 7 7 7
10 8 6 6 6 6 6 7 7 7 7 7 7 6 7 8 8 8 8 8 9 10 9 9 10 9 9 8 8 8 7 7 7 6 6 8 7 8 8 8 8 7
10 9 9 9 8 8 9 8 7 6 7 7 7 7 7 7 8 8 8 9 9 9 10 9 9 10 10 9 8 8 8 8 8 8 8 7 7 7 7 8 8 9
10 10 9 10 9 9 8 7 7 6 7 7 7 7 7 7 7 8 8 9 9 8 8 10 10 10 11 11 10 8 9 8 8 8 8 6 7 8 8 7 8 8
9 9 8 8 8 8 8 7 7 7 8 7 7 8 7 7 7 8 8 10 9 10 9 9 9 10 10 10 11 10 9 10 9 8 8 8 7 7 7 8 8 8
7 6 7 7 7 7 8 9 8 8 7 9 9 8 10 9 8 9 9 10 10 11 11 11 11 10 10 10 10 10 10 11 9 10 9 9 9 9 7 7 8 9
8 8 9 7 8 8 8 9 9 8 8 1 5 3 3 6 10 10 10 11 10 10 11 10 9 9 9 9 9 10 10 10 10 9 9 9 8 9 9 9 8 9
7 7 8 8 8 9 9 5 6 6 6 2 4 2 2 2 4 6 9 11 12 12 11 11 10 10 10 9 10 10 11 10 11 11 10 9 8 9 8 8 8 9
6 7 7 8 8 7 9 10 8 7 4 5 5 5 5 5 6 8 9 12 11 12 12 11 11 11 10 10 9 10 11 11 10 10 11 11 11 10 10 9 9 9
7 7 7 7 7 2 3 4 8 7 6 8 7 8 9 9 10 10 9 7 12 12 12 11 11 11 10 10 11 11 11 10 11 10 10 10 10 10 10 9 9 9
9 8 7 6 7 8 10 12 8 6 6 9 9 9 9 8 9 10 10 8 10 13 12 12 12 12 11 11 11 10 11 11 11 11 11 11 11 10 10 10 10 10
9 7 7 8 8 7 9 7 7 8 9 8 9 9 8 8 9 10 10 10 12 13 14 13 12 12 12 12 12 11 11 11 11 11 11 11 12 12 11 11 11 10
9 8 7 5 5 5 6 5 7 10 11 10 9 8 7 8 8 10 10 11 11 12 14 12 13 13 12 12 12 11 11 11 11 12 12 11 12 12 12 11 11 11
9 9 8 6 6 7 7 7 6 7 7 7 7 8 9 10 11 11 11 10 11 12 11 12 11 12 12 12 12 12 12 12 11 12 12 12 12 12 11 11 10 10
6 7 8 8 7 8 7 7 7 6 6 6 7 7 8 9 10 11 11 12 11 10 8 8 9 13 12 11 12 13 12 12 12 12 12 12 12 11 11 10 10 10
8 7 8 8 5 7 8 7 7 7 7 7 7 7 7 6 8 9 10 11 11 10 10 8 7 7 10 11 11 11 12 11 11 11 11 11 11 11 11 11 11 11
7 6 6 8 7 7 6 6 6 6 7 7 7 7 7 7 7 8 9 8 9 10 9 9 9 7 4 6 8 8 10 11 10 10 10 10 10 11 11 10 11 12
7 7 6 6 5 5 5 5 5 7 6 6 6 6 7 7 8 8 7 7 8 9 9 9 9 2 5 6 5 5 6 9 11 11 10 9 10 10 10 9 11 12
5 5 4 1 1 4 6 5 6 6 6 6 7 7 7 8 8 8 8 8 9 9 10 11 11 10 5 3 3 3 3 6 8 9 9 9 9 9 8 7 8 5
2 1 2 5 5 5 5 8 6 6 6 6 6 6 7 8 8 8 8 8 8 9 9 9 10 10 11 10 9 8 7 6 7 8 8 9 9 9 9 9 10 10
6 6 5 4 5 5 5 5 6 5 5 5 5 6 7 7 6 7 7 8 9 9 8 8 8 10 11 11 11 10 9 7 8 8 8 9 9 9 10 11 11 11
5 7 7 6 6 6 6 6 5 5 5 5 5 5 5 5 6 7 7 8 8 7 7 7 5 4 9 9 8 9 7 6 8 8 8 9 10 10 10 8 7 7
4 6 7 7 7 7 6 6 6 6 6 5 6 6 6 6 6 6 6 7 7 7 6 6 5 5 6 5 5 5 4 7 9 9 9 9 9 10 9 9 9 8
4 4 5 6 6 6 6 6 5 5 5 5 5 5 5 5 4 4 5 6 6 7 6 5 6 5 7 6 6 6 7 8 7 6 8 8 9 8 8 8 9 9
3 4 4 5 6 5 5 4 4 3 3 3 3 3 3 3 4 4 4 4 4 5 3 6 6 4 9 8 7 8 5 6 5 7 8 8 8 8 8 7 7 8
3 4 4 4 4 4 3 3 3 4 4 4 3 3 3 3 4 4 5 4 4 5 5 5 5 4 5 7 6 6 6 5 6 7 8 7 7 7 8 8 7 5
Wind_Direction
204 206 208 212 222 229 228 216 218 215 222 225 224 215 221 223 224 237 227 216 205 209 205 209 209 212 215 215 214 227 242 229 241 221 224 238 234 240 244 242 252 261
192 199 208 217 215 218 225 232 222 233 222 227 243 243 227 224 218 224 226 221 206 213 213 210 214 217 221 217 203 217 224 226 231 240 220 224 239 250 251 251 253 259
193 192 199 213 217 209 219 217 226 227 234 230 225 239 244 221 228 218 221 220 222 217 208 218 220 220 221 220 211 212 217 219 232 234 232 226 240 245 258 261 251 243
199 202 204 213 221 226 212 213 208 219 229 227 232 233 232 242 230 220 212 221 229 228 226 216 219 220 218 219 219 222 222 223 224 236 239 231 232 245 248 249 255 259
215 209 212 216 223 227 233 219 215 210 215 226 230 225 227 227 243 238 214 213 222 227 222 227 219 225 223 221 220 225 225 231 227 226 236 239 237 238 245 255 259 258
207 222 215 218 218 224 225 223 215 219 224 226 222 219 225 216 229 236 240 225 214 221 228 220 219 219 222 220 221 226 228 231 233 233 226 233 242 244 242 240 245 251
197 199 212 210 216 215 230 231 222 217 234 256 52 327 6 297 249 233 230 243 238 229 226 225 223 227 223 224 219 223 227 236 239 233 226 232 235 244 249 248 247 256
203 209 210 211 214 213 216 197 348 299 222 158 207 175 227 260 278 274 256 235 237 233 234 229 221 219 226 223 224 220 223 223 226 228 232 235 244 245 239 247 254 250
197 208 213 217 214 212 227 142 208 222 195 204 202 218 200 224 254 253 246 256 241 235 232 233 229 223 220 226 227 225 225 232 237 228 225 229 230 234 240 240 245 248
193 205 207 213 209 171 6 69 179 200 206 210 210 213 215 215 223 233 241 239 258 242 235 234 233 229 226 223 223 227 227 226 232 237 235 230 232 236 236 235 238 244
191 194 199 199 202 145 176 196 187 183 208 212 205 209 212 217 218 227 229 222 229 239 235 231 231 232 230 231 229 224 227 230 229 229 231 234 237 238 242 245 249 249
196 197 198 196 198 171 179 186 166 186 204 210 208 206 209 215 224 224 224 222 226 232 235 227 227 230 230 232 233 231 228 228 231 230 233 235 236 237 238 238 243 248
202 202 207 169 195 195 197 186 178 187 195 203 208 212 211 218 223 232 232 230 232 235 238 235 227 226 228 226 231 236 236 230 232 233 235 238 241 240 241 241 241 244
205 203 195 187 194 205 206 201 201 210 212 214 214 219 223 225 229 233 236 239 238 235 232 237 239 231 225 227 226 229 234 234 232 238 240 239 242 244 243 244 244 245
208 197 201 198 198 206 200 190 197 215 222 225 225 225 229 233 235 237 242 243 244 246 248 250 246 242 234 225 224 226 232 235 237 236 239 244 244 245 245 246 248 247
194 202 199 194 182 207 218 213 211 213 217 220 224 226 229 232 234 237 240 240 239 243 243 244 250 259 257 249 241 237 228 236 238 241 244 246 247 248 251 251 248 252
190 198 199 203 207 218 217 222 223 212 215 216 219 223 229 231 232 234 236 240 243 243 241 242 239 235 326 298 247 259 257 242 240 243 244 248 252 255 257 263 271 269
200 203 199 204 214 229 229 231 219 214 211 213 215 219 224 225 226 224 227 230 232 238 243 247 251 64 58 39 356 330 300 274 263 257 250 247 249 250 254 258 265 263
198 211 191 170 204 230 244 213 214 215 214 214 215 216 217 218 216 216 217 220 225 228 234 236 240 254 254 213 181 195 218 260 260 266 272 266 263 261 257 252 258 283
99 66 205 196 228 231 217 221 214 213 213 211 214 210 214 219 217 218 222 222 225 225 228 232 235 227 218 220 217 218 220 224 247 256 259 264 264 266 270 272 269 266
168 141 222 205 225 222 223 228 218 215 213 211 213 213 213 217 221 222 225 228 227 231 231 236 236 203 201 210 218 221 221 220 242 240 247 250 254 256 259 257 259 261
156 163 178 186 197 219 226 220 216 213 209 199 213 217 216 218 222 227 226 230 233 238 241 241 259 169 199 208 223 233 219 235 242 244 249 253 253 255 255 262 261 254
184 165 186 175 184 189 198 197 203 200 203 202 207 211 213 215 224 224 228 235 238 237 241 249 257 161 181 196 227 240 226 246 244 243 243 247 254 255 258 258 259 257
192 184 173 174 175 185 188 193 198 201 199 196 213 208 220 223 229 235 237 244 244 249 245 251 252 175 174 176 188 182 233 247 253 265 265 260 259 263 264 267 269 274
178 172 163 169 177 174 181 178 189 201 192 207 220 223 219 223 222 227 226 237 250 268 283 269 265 203 167 182 191 192 223 252 253 256 259 261 266 268 269 272 277 276
141 158 164 168 155 139 149 160 154 162 165 190 182 204 207 210 221 219 215 207 202 225 208 230 250 276 148 172 206 230 245 254 257 247 255 267 281 288 289 282 283 279